Belmar-Farmingdale, NJ

12:30 PM EST on December 12, 2019 (GMT -0500)
Allaire

Weather History for KBLM - October, 2019

Change the Weather History Date:

Saturday, October 5, 2019

  Actual Average Record
Temperature  
Mean Temperature 52 °F -  
Max Temperature 57 °F 64 °F 84 °F (2002)
Min Temperature 48 °F 49 °F 37 °F (1996)
Degree Days  
Heating Degree Days 12    
Growing Degree Days 2 (Base 50)    
Moisture  
Dew Point 41 °F    
Average Humidity 63    
Maximum Humidity 83    
Minimum Humidity 49    
Precipitation  
Precipitation 0.00 in - - ()
Sea Level Pressure  
Sea Level Pressure 30.42 in    
Wind  
Wind Speed 7 mph ()    
Max Wind Speed 14 mph    
Max Gust Speed 20 mph    
Visibility 10.0 miles    
Events      
Averages and records for this station are not official NWS values.
T = Trace of Precipitation, MM = Missing Value Source: Averaged Metar Reports

Daily Weather History Graph

Daily Weather History Graph

Search for Another Location

Airport or City:

Astronomy

Oct. 05, 2019 Rise Set
Actual Time 6:56 AM EDT 6:32 PM EDT
Civil Twilight 6:29 AM EDT 6:59 PM EDT
Nautical Twilight 5:57 AM EDT 7:31 PM EDT
Astronomical Twilight 5:26 AM EDT 8:02 PM EDT
Moon 2:20 PM EDT (10/5) 11:52 PM EDT (10/5)
Length of Visible Light 12h 30m
Length of Day
11h 36m
Waxing Crescent, 50% of the Moon is Illuminated
Oct 5
Waxing Crescent
Oct 5
First Quarter
Oct 13
Full
Oct 21
Last Quarter
Oct 27
New

Hourly Weather History & Observations

Time (EDT) Temp. Dew Point Humidity Pressure Visibility Wind Dir Wind Speed Gust Speed Precip Events Conditions
12:56 AM 51.1 °F 39.0 °F 63% 30.35 in 10.0 mi North 11.5 mph - N/A   Clear
1:56 AM 50.0 °F 39.0 °F 66% 30.38 in 10.0 mi North 9.2 mph - N/A   Clear
2:56 AM 48.9 °F 39.0 °F 69% 30.38 in 10.0 mi North 6.9 mph - N/A   Mostly Cloudy
3:56 AM 48.9 °F 39.9 °F 71% 30.40 in 10.0 mi North 8.1 mph - N/A   Overcast
4:56 AM 48.0 °F 39.9 °F 74% 30.41 in 10.0 mi North 5.8 mph - N/A   Overcast
5:56 AM 48.9 °F 37.9 °F 66% 30.42 in 10.0 mi NNE 6.9 mph - N/A   Overcast
6:56 AM 48.0 °F 37.0 °F 66% 30.43 in 10.0 mi NNE 8.1 mph - N/A   Overcast
7:56 AM 48.9 °F 37.9 °F 66% 30.44 in 10.0 mi NNE 9.2 mph - N/A   Overcast
8:56 AM 51.1 °F 37.0 °F 59% 30.45 in 10.0 mi NE 12.7 mph - N/A   Mostly Cloudy
9:56 AM 52.0 °F 37.0 °F 57% 30.47 in 10.0 mi NE 13.8 mph 18.4 mph N/A   Scattered Clouds
10:56 AM 54.0 °F 36.0 °F 51% 30.48 in 10.0 mi East 13.8 mph 19.6 mph N/A   Clear
11:56 AM 55.9 °F 37.0 °F 49% 30.48 in 10.0 mi NE 10.4 mph 17.3 mph N/A   Partly Cloudy
12:56 PM 57.0 °F 39.0 °F 51% 30.47 in 10.0 mi East 10.4 mph - N/A   Mostly Cloudy
1:56 PM 55.9 °F 39.0 °F 53% 30.46 in 10.0 mi East 9.2 mph - N/A   Mostly Cloudy
2:56 PM 55.9 °F 39.0 °F 53% 30.43 in 10.0 mi SE 5.8 mph 16.1 mph N/A   Mostly Cloudy
3:56 PM 55.9 °F 39.9 °F 55% 30.42 in 10.0 mi NE 8.1 mph - N/A   Scattered Clouds
4:56 PM 57.0 °F 41.0 °F 55% 30.41 in 10.0 mi ESE 8.1 mph - N/A   Mostly Cloudy
5:56 PM 55.0 °F 42.1 °F 62% 30.40 in 10.0 mi East 5.8 mph - N/A   Mostly Cloudy
6:56 PM 55.0 °F 44.1 °F 67% 30.40 in 10.0 mi East 3.5 mph - N/A   Overcast
7:56 PM 55.9 °F 45.0 °F 67% 30.40 in 10.0 mi East 4.6 mph - N/A   Overcast
8:56 PM 55.9 °F 46.0 °F 69% 30.40 in 10.0 mi SE 4.6 mph - N/A   Overcast
9:56 PM 55.0 °F 46.0 °F 72% 30.40 in 10.0 mi ESE 3.5 mph - N/A   Overcast
10:56 PM 55.0 °F 46.9 °F 74% 30.39 in 10.0 mi ESE 5.8 mph - N/A   Overcast
11:56 PM 53.1 °F 48.0 °F 83% 30.38 in 10.0 mi Calm Calm - N/A   Overcast